Terminal Aerodrome Forecast
Issued by NWS

Home | Current Version | Previous Version | Text Only | Print | Product List | Glossary On
Versions: 1 2 3 4 5 6 7 8 9 10 11 12 13 14 15 16 17 18 19
000
FTUS44 KLZK 282300
TAFPBF
TAF
KPBF 282338Z 2900/2924 08008KT P6SM SKC
     FM290600 08005KT P6SM SKC
     FM291200 13007KT P6SM SCT030 BKN250
     FM291500 18013G23KT P6SM BKN250=

USA.gov is the U.S. government's official web portal to all federal, state and local government web resources and services.